{"data":{"norad_id":68272,"intl_designator":"2026-055L","name":"STARLINK-36974","alt_names":[],"object_type":"PAYLOAD","status":"ACTIVE","operator":null,"country":"US","launch_date":"2026-03-19","launch_site_code":"AFETR","launch_vehicle":null,"mission":null,"orbit_class":"UNKNOWN","rcs_meters":null,"size_class":null,"mass_kg":null,"dimensions":null,"purposes":["comms"],"wikipedia_slug":null,"has_3d_model":false,"image_url":null,"decayed_at":null,"tle_current":{"epoch":"2026-05-24T21:46:56.196768Z","epoch_age_seconds":80128,"freshness":"FRESH","line1":"1 68272U 26055L   26144.90759487  .00031477  00000+0  93880-3 0  9991","line2":"2 68272  53.1601 326.4564 0001052  69.3917 290.7198 15.34400969 11588","mean_motion":15.34400969,"eccentricity":0.0001052,"inclination_deg":53.1601,"raan_deg":326.4564,"arg_perigee_deg":69.3917,"mean_anomaly_deg":290.7198,"bstar":0.0009388,"rev_number":1158,"period_min":93.847698814898,"perigee_km":461.98070404613,"apogee_km":463.4200162267,"semimajor_km":6840.8373601364,"source":"CELESTRAK","updated_at":"2026-05-25T13:38:21.892044Z"}}}